Retour au catalogue

STARLINK-35419

ActifCommunicationsVLEO
NORAD 66559·PAYLOAD·🇺🇸 United States

Lancé Nov 21, 2025 depuis Cape Canaveral Space Force Station

Loading…

Prochains Passages (prochaines 24 heures)

TLE

FraisSource: CelesTrak SupGP

Époque: Sep 14, 2026, 21:05 UTC

1 66559C 25268C   26257.87895833  .00008999  00000+0  32590-3 0  2570
2 66559  43.0036 358.7113 0001818 273.8711  55.9702 15.27576769    18

Suivez STARLINK-35419 en temps réel avec AllMySat

Download on the App Store